COSMOS 2251 DEB, 34567

Orbit data source: Space-Track

COSMOS 2251 DEB, 34567 is space debris in LEO originally from a launch on Wed, 16 Jun 1993 UTC launched from the Plesetsk Missile And Space Complex (PKMTR). The debris from Iridium 33, an American commercial communications satellite, has been tracked extensively since its accidental collision with the defunct Russian satellite Cosmos 2251 in 2009. This event, occurring at high speed in low Earth orbit (LEO), generated thousands of pieces of space debris, significantly increasing the risk of further collisions. The Iridium 33 debris cloud has impacted space traffic management and orbital debris mitigation strategies, making it a subject of ongoing study in space situational awareness.

Loading next visibility...
Identifier
34567, 1993-036VD
Orbit
LEO
Country
Flag of CISCIS
Related business
Manufacturer
Unknown
Mission
Spacecraft
Bus & Motor
Unknown
Mass
Unknown
Launch date (UTC)
1993-06-16 (32 years ago)
Launch vehicle
Unknown
Launch site
Plesetsk Missile And Space Complex (PKMTR)
Object type
Payload
Rocket body
Debris
Shape & HBR
Unknown shape, 0.1 m
Radar Cross Section
Small (<0.1 m²)

Expand to show TLE details & history
Last TLE update: 2 days ago

TLE from 2 days ago
0 COSMOS 2251 DEB
1 34567U 93036VD  25306.25731282  .00000583  00000-0  25796-3 0  9990
2 34567  74.0419 229.6329 0074642 312.4563 173.7625 14.23956838865483
Epoch: 2025-11-02T06:10Z
TLE epoch observation values (Epoch: 2025-11-02T06:10:31.827Z)
Latitude
50.88971°
Longitude
-105.25589°
Altitude
873.176 km
Speed
7.393 km/s
True Right ascension
01h 56m 36s
True Declination
50° 43' 26"
Sunlit
Object was in full shadow at epoch
Visualization orbit readout
Latitude
Unknown
Longitude
Unknown
Altitude
Unknown
Speed
Unknown
Apparent Right ascension
Unknown
Apparent Declination
Unknown
Sunlit
N/A
Visualization observer readout
Local Sidereal Time
17:06:22
Azimuth
Unknown
Elevation
Unknown
Doppler factor
Unknown
Orbital elements
Apogee altitude
863.29 km
Perigee altitude
755.988 km
Semi-major axis
7,187.776 km
Eccentricity
0.00746
Inclination
74.0419°
RAAN
229.6329°
Arg. of periapsis
312.4563°
True anomaly
173.85458°
Mean anomaly
173.7625°
Eccentric anomaly
173.80862°
Mean motion
3.56165 °/min
Orbital period
101.08 mins
BSTAR
0.00025796
Loading maneuver chart data...
Computing Atmospheric mass density...

Documentation

Showing up to 5 results
|